Terminal Aerodrome Forecast
Issued by NWS Brownsville, TX

Home | Current Version | Previous Version | Text Only | Print | Product List | Glossary On
Versions: 1 2 3 4 5 6 7 8 9 10 11 12 13 14 15 16 17 18 19 20 21 22 23 24 25 26 27
257
FTUS44 KBRO 192321
TAFHRL
TAF
KHRL 192321Z 2000/2024 16026G33KT P6SM SCT028 BKN035
     FM200300 16015G20KT P6SM BKN015
     FM200600 16016G22KT P6SM OVC008
     FM201500 16017G23KT P6SM OVC015=

USA.gov is the U.S. government's official web portal to all federal, state and local government web resources and services.